Ocoee 3 Observed Data For Previous 48 Hours

Caption
Day and Hour Reservoir Elevation (behind dam)* Tailwater Elevation (below dam)* Average Hourly Discharge*
3/22/2019 2 AM EDT 1,433.54 1,122.80 2,472
3/22/2019 3 AM EDT 1,433.37 1,122.28 2,454
3/22/2019 4 AM EDT 1,433.16 1,122.14 2,455
3/22/2019 5 AM EDT 1,432.94 1,122.18 2,456
3/22/2019 6 AM EDT 1,432.71 1,122.23 2,452
3/22/2019 7 AM EDT 1,432.47 1,122.20 2,447
3/22/2019 8 AM EDT 1,432.22 1,122.35 2,448
3/22/2019 9 AM EDT 1,431.96 1,122.10 2,453
3/22/2019 10 AM EDT 1,431.67 1,122.25 2,455
3/22/2019 11 AM EDT 1,431.37 1,122.21 2,458
3/22/2019 12 PM EDT 1,431.05 1,122.34 2,469
3/22/2019 1 PM EDT 1,430.74 1,122.26 2,465
3/22/2019 2 PM EDT 1,430.66 1,122.35 2,457
3/22/2019 3 PM EDT 1,430.72 1,122.28 2,453
3/22/2019 4 PM EDT 1,430.85 1,122.30 2,466
3/22/2019 5 PM EDT 1,431.01 1,122.39 2,468
3/22/2019 6 PM EDT 1,431.18 1,122.19 2,471
3/22/2019 7 PM EDT 1,431.36 1,122.23 2,463
3/22/2019 8 PM EDT 1,431.52 1,122.30 2,463
3/22/2019 9 PM EDT 1,431.67 1,122.32 2,461
3/22/2019 10 PM EDT 1,431.83 1,122.44 2,471
3/22/2019 11 PM EDT 1,431.98 1,122.35 2,458
3/23/2019 12 AM EDT 1,432.15 1,122.22 2,459
3/23/2019 1 AM EDT 1,432.30 1,122.20 2,453
3/23/2019 2 AM EDT 1,432.43 1,122.26 2,457
3/23/2019 3 AM EDT 1,432.58 1,122.24 2,456
3/23/2019 4 AM EDT 1,432.71 1,122.21 2,463
3/23/2019 5 AM EDT 1,432.84 1,122.31 2,463
3/23/2019 6 AM EDT 1,432.96 1,122.14 2,450
3/23/2019 7 AM EDT 1,432.99 1,122.29 2,447
3/23/2019 8 AM EDT 1,432.91 1,122.09 2,450
3/23/2019 9 AM EDT 1,432.73 1,122.18 2,449
3/23/2019 10 AM EDT 1,432.49 1,122.32 2,484
3/23/2019 11 AM EDT 1,432.23 1,122.43 2,477
3/23/2019 12 PM EDT 1,431.94 1,122.36 2,473
3/23/2019 1 PM EDT 1,431.64 1,122.35 2,468
3/23/2019 2 PM EDT 1,431.32 1,122.22 2,460
3/23/2019 3 PM EDT 1,431.02 1,122.36 2,458
3/23/2019 4 PM EDT 1,430.91 1,122.22 2,462
3/23/2019 5 PM EDT 1,430.95 1,122.32 2,461
3/23/2019 6 PM EDT 1,431.06 1,122.29 2,465
3/23/2019 7 PM EDT 1,431.19 1,122.27 2,461
3/23/2019 8 PM EDT 1,431.33 1,122.20 2,463
3/23/2019 9 PM EDT 1,431.47 1,122.16 2,460
3/23/2019 10 PM EDT 1,431.61 1,122.14 2,455
3/23/2019 11 PM EDT 1,431.74 1,122.20 2,449
3/24/2019 12 AM EDT 1,431.88 1,122.08 2,452
3/24/2019 1 AM EDT 1,432.02 1,122.28 2,456

Elevations are in feet above sea level. Discharges are in cubic feet per second and are reported at the end of the hour.